Farmington, NM

1:27 AM MDT on April 27, 2017 (GMT -0600)
Four Corners Regional

Weather History for KFMN - April, 2013

Change the Weather History Date:

Tuesday, April 9, 2013

  Actual Average Record
Temperature  
Mean Temperature 38 °F -  
Max Temperature 44 °F 61 °F 80 °F (2012)
Min Temperature 33 °F 31 °F 20 °F (1980)
Degree Days  
Heating Degree Days 26    
Moisture  
Dew Point 35 °F    
Average Humidity 88    
Maximum Humidity 100    
Minimum Humidity 72    
Precipitation  
Precipitation 0.20 in - - ()
Sea Level Pressure  
Sea Level Pressure 29.58 in    
Wind  
Wind Speed 12 mph (West)    
Max Wind Speed 21 mph    
Max Gust Speed 23 mph    
Visibility 9 miles    
Events Rain    
Averages and records for this station are not official NWS values.
T = Trace of Precipitation, MM = Missing Value Source: NWS Daily Summary

Daily Weather History Graph

Daily Weather History Graph

Search for Another Location

Airport or City:

Trip Planner

Search our weather history database for the weather conditions in past years. The results will help you decide how hot, cold, wet, or windy it might be!

Date:

Astronomy

Apr. 09, 2013 Rise Set
Actual Time 6:46 AM MDT 7:42 PM MDT
Civil Twilight 6:20 AM MDT 8:08 PM MDT
Nautical Twilight 5:49 AM MDT 8:40 PM MDT
Astronomical Twilight 5:16 AM MDT 9:12 PM MDT
Moon 6:10 AM MDT (4/9) 7:20 PM MDT (4/9)
Length of Visible Light 13h 48m
Length of Day
12h 55m
Waning Crescent, 0% of the Moon is Illuminated
Apr 9
Waning Crescent
Apr 10
New
Apr 18
First Quarter
Apr 25
Full
May 2
Last Quarter

Hourly Weather History & Observations

Time (MDT) Temp. Windchill Dew Point Humidity Pressure Visibility Wind Dir Wind Speed Gust Speed Precip Events Conditions
12:53 AM 39.9 °F 33.4 °F 33.1 °F 77% 29.44 in 10.0 mi East 10.4 mph - N/A   Overcast
1:53 AM 39.9 °F 30.2 °F 32.0 °F 73% 29.41 in 10.0 mi ESE 20.7 mph - N/A   Overcast
2:53 AM 39.0 °F 29.9 °F 33.1 °F 79% 29.40 in 10.0 mi ESE 17.3 mph - 0.00 in Rain Light Rain
3:04 AM 39.2 °F 30.8 °F 33.8 °F 81% 29.50 in 10.0 mi ESE 15.0 mph - 0.00 in Rain Light Rain
3:34 AM 37.4 °F 30.3 °F 33.8 °F 87% 29.53 in 6.0 mi SSE 10.4 mph - 0.08 in Rain Rain
3:48 AM 35.6 °F 29.2 °F 33.8 °F 93% 29.50 in 5.0 mi ESE 8.1 mph - 0.13 in Rain Rain
3:53 AM 36.0 °F 29.0 °F 33.1 °F 89% 29.39 in 6.0 mi East 9.2 mph - 0.14 in Rain Rain
4:03 AM 35.6 °F 28.0 °F 33.8 °F 93% 29.49 in 8.0 mi East 10.4 mph - 0.01 in Rain Light Rain
4:14 AM 35.6 °F 28.0 °F 32.0 °F 87% 29.48 in 9.0 mi East 10.4 mph - 0.02 in Rain Light Rain
4:32 AM 35.6 °F 27.5 °F 33.8 °F 93% 29.48 in 10.0 mi East 11.5 mph - 0.03 in   Overcast
4:40 AM 35.6 °F 28.0 °F 33.8 °F 93% 29.48 in 10.0 mi East 10.4 mph - 0.03 in   Overcast
4:53 AM 35.1 °F 29.3 °F 33.1 °F 92% 29.38 in 10.0 mi East 6.9 mph - 0.03 in   Overcast
5:53 AM 37.0 °F 34.5 °F 35.1 °F 93% 29.42 in 10.0 mi NE 3.5 mph - N/A   Overcast
6:38 AM 35.6 °F 31.7 °F 33.8 °F 93% 29.47 in 6.0 mi NNW 4.6 mph - 0.02 in Rain Light Rain
6:53 AM 36.0 °F 32.1 °F 34.0 °F 93% 29.45 in 7.0 mi North 4.6 mph - 0.03 in Rain Light Rain
7:06 AM 35.6 °F 30.7 °F 33.8 °F 93% 29.48 in 8.0 mi NNW 5.8 mph - 0.01 in Rain Light Rain
7:25 AM 35.6 °F 31.7 °F 33.8 °F 93% 29.48 in 10.0 mi NNW 4.6 mph - 0.01 in   Overcast
7:53 AM 37.0 °F 31.0 °F 35.1 °F 93% 29.47 in 10.0 mi WNW 8.1 mph - 0.01 in   Overcast
8:20 AM 35.6 °F 29.9 °F 35.6 °F 100% 29.49 in 6.0 mi West 6.9 mph - N/A   Overcast
8:53 AM 36.0 °F 29.0 °F 34.0 °F 93% 29.49 in 5.0 mi West 9.2 mph - 0.00 in Rain Light Rain
9:20 AM 37.4 °F 29.3 °F 35.6 °F 93% 29.51 in 9.0 mi West 12.7 mph - 0.01 in Rain Light Rain
9:29 AM 37.4 °F 30.8 °F 35.6 °F 93% 29.51 in 9.0 mi WNW 9.2 mph - 0.01 in Rain Light Rain
9:44 AM 37.4 °F 30.8 °F 35.6 °F 93% 29.52 in 10.0 mi West 9.2 mph - 0.02 in Rain Light Rain
9:53 AM 37.9 °F 30.5 °F 36.0 °F 93% 29.50 in 9.0 mi West 11.5 mph - 0.02 in Rain Light Rain
10:08 AM 37.4 °F 28.9 °F 35.6 °F 93% 29.52 in 10.0 mi WNW 13.8 mph - 0.00 in Rain Light Rain
10:53 AM 37.9 °F 30.5 °F 35.1 °F 89% 29.52 in 10.0 mi West 11.5 mph - 0.02 in Rain Light Rain
11:53 AM 39.0 °F 31.4 °F 36.0 °F 89% 29.53 in 9.0 mi West 12.7 mph - 0.02 in Rain Light Rain
12:04 PM 39.2 °F 31.2 °F 37.4 °F 93% 29.55 in 9.0 mi West 13.8 mph - 0.01 in Rain Light Rain
12:14 PM 39.2 °F 31.2 °F 37.4 °F 93% 29.55 in 10.0 mi West 13.8 mph 19.6 mph 0.01 in   Overcast
12:21 PM 39.2 °F 31.2 °F 37.4 °F 93% 29.56 in 10.0 mi West 13.8 mph - 0.01 in Rain Light Rain
12:30 PM 41.0 °F 33.9 °F 37.4 °F 87% 29.56 in 10.0 mi West 12.7 mph - 0.01 in Rain Light Rain
12:53 PM 42.1 °F 35.7 °F 37.9 °F 85% 29.53 in 10.0 mi West 11.5 mph - 0.01 in Rain Light Rain
1:53 PM 41.0 °F 32.5 °F 37.0 °F 86% 29.55 in 10.0 mi SW 17.3 mph - 0.00 in Rain Light Rain
2:32 PM 42.8 °F 35.4 °F 37.4 °F 81% 29.59 in 10.0 mi SW 15.0 mph - 0.00 in   Overcast
2:44 PM 41.0 °F 33.1 °F 35.6 °F 81% 29.60 in 10.0 mi SSW 15.0 mph - 0.00 in   Overcast
2:51 PM 41.0 °F 33.1 °F 35.6 °F 81% 29.61 in 9.0 mi SW 15.0 mph - 0.00 in Rain Light Rain
2:53 PM 39.9 °F 31.1 °F 36.0 °F 86% 29.59 in 7.0 mi SW 17.3 mph 23.0 mph 0.00 in Rain Light Rain
3:06 PM 39.2 °F 35.0 °F 35.6 °F 87% 29.62 in 3.0 mi Variable 5.8 mph - 0.04 in Rain Rain
3:27 PM 37.4 °F 29.8 °F 35.6 °F 93% 29.62 in 9.0 mi WSW 11.5 mph - 0.08 in Rain Light Rain
3:41 PM 39.2 °F 30.8 °F 35.6 °F 87% 29.63 in 10.0 mi SW 15.0 mph - 0.08 in   Overcast
3:53 PM 39.9 °F 32.5 °F 37.0 °F 89% 29.63 in 10.0 mi SW 12.7 mph - 0.08 in   Overcast
4:13 PM 41.0 °F 33.5 °F 37.4 °F 87% 29.64 in 7.0 mi SW 13.8 mph 20.7 mph 0.00 in Rain Light Rain
4:24 PM 37.4 °F 29.3 °F 35.6 °F 93% 29.66 in 5.0 mi WNW 12.7 mph 21.9 mph 0.02 in Rain Rain
4:37 PM 37.4 °F 27.5 °F 35.6 °F 93% 29.67 in 7.0 mi West 18.4 mph 21.9 mph 0.03 in Rain Light Rain
4:44 PM 37.4 °F 28.9 °F 33.8 °F 87% 29.67 in 7.0 mi WNW 13.8 mph - 0.04 in Rain Light Rain
4:53 PM 37.0 °F 28.5 °F 34.0 °F 89% 29.69 in 6.0 mi West 13.8 mph - 0.05 in Rain Light Rain
5:03 PM 37.4 °F 28.5 °F 35.6 °F 93% 29.68 in 7.0 mi West 15.0 mph - 0.01 in Rain Light Rain
5:24 PM 37.4 °F 29.3 °F 35.6 °F 93% 29.69 in 8.0 mi West 12.7 mph - 0.04 in Rain Light Rain
5:50 PM 37.4 °F 31.4 °F 35.6 °F 93% 29.70 in 10.0 mi WSW 8.1 mph - 0.05 in Rain Light Rain
5:53 PM 39.0 °F 33.4 °F 36.0 °F 89% 29.70 in 10.0 mi WSW 8.1 mph - 0.05 in Rain Light Rain
6:53 PM 39.9 °F 35.1 °F 37.0 °F 89% 29.73 in 10.0 mi WSW 6.9 mph - 0.00 in   Scattered Clouds
7:14 PM 39.2 °F 32.5 °F 37.4 °F 93% 29.74 in 10.0 mi West 10.4 mph - 0.00 in Rain Light Rain
7:53 PM 39.9 °F 35.8 °F 36.0 °F 86% 29.75 in 10.0 mi NW 5.8 mph - 0.00 in   Overcast
8:53 PM 37.9 °F 31.5 °F 33.1 °F 83% 29.80 in 10.0 mi WNW 9.2 mph - N/A   Clear
9:53 PM 37.0 °F 31.6 °F 33.1 °F 86% 29.83 in 10.0 mi West 6.9 mph - N/A   Mostly Cloudy
10:53 PM 34.0 °F 26.0 °F 30.9 °F 89% 29.87 in 10.0 mi WSW 10.4 mph - N/A   Partly Cloudy
11:53 PM 33.1 °F 24.9 °F 28.9 °F 85% 29.88 in 10.0 mi West 10.4 mph - N/A   Clear